[Iaude] MPEC D29: 2024 CK8 [a=0.91,e=0.15,i=3.4,H=25.1]
    mpec at cfa.harvard.edu 
    mpec at cfa.harvard.edu
       
    Sat Feb 17 01:11:02 EST 2024
    
    
  
M.P.E.C. 2024-D29                             Issued 2024 February 17, 06:09 UT
     The Minor Planet Electronic Circulars contain information on unusual
         minor planets, routine data on comets and natural satellites,
         and occasional editorial announcements.  They are published
    on behalf of Division F of the International Astronomical Union by the
          Minor Planet Center, Smithsonian Astrophysical Observatory,
                          Cambridge, MA 02138, U.S.A.
			  
             Prepared using the Tamkin Foundation Computer Network
                              MPC at CFA.HARVARD.EDU
            URL https://www.minorplanetcenter.net/    ISSN 1523-6714
                                    2024 CK8                                    
Observations:
     K24C08K* C2024 02 14.56023412 40 12.201-07 12 51.61         20.63wXED029F52
     K24C08K  C2024 02 14.58117712 40 14.946-07 12 06.40         20.62wXED029F52
     K24C08K  C2024 02 14.59170512 40 16.331-07 11 43.46         20.83wXED029F52
     K24C08K KC2024 02 15.05487812 41 50.58 -06 55 27.0          20.4 GVED029L01
     K24C08K KC2024 02 15.05614112 41 50.81 -06 55 24.1          20.6 GVED029L01
     K24C08K KC2024 02 15.05740412 41 50.99 -06 55 21.2          20.4 GVED029L01
     K24C08K pC2024 02 15.05950812 41 51.29 -06 55 16.1          20.8 GVED029L01
     K24C08K KC2024 02 15.42753912 43 04.692-06 40 33.28         20.38GVED029I52
     K24C08K KC2024 02 15.43398212 43 05.646-06 40 18.12         20.53GVED029I52
     K24C08K KC2024 02 15.43591812 43 05.916-06 40 13.48         20.22GVED029I52
     K24C08K  C2024 02 15.52217512 43 26.208-06 36 17.88         19.59GVED029F51
     K24C08K  C2024 02 15.52299312 43 26.320-06 36 15.94         19.89GVED029F51
     K24C08K 0B2024 02 17.12927 12 49 13.070-05 22 46.96         20.3 VZED029M49
     K24C08K 0B2024 02 17.13425 12 49 13.915-05 22 32.12         20.2 VZED029M49
     K24C08K 0B2024 02 17.13922 12 49 14.717-05 22 17.15         20.4 VZED029M49
Observer details:
F51 Pan-STARRS 1, Haleakala.  Observers J. Herman, T. Lowe, P. Minguez, A.
    Schultz, I. Smith.  Measurers K. Chambers, T. de Boer, J. Fairlamb, H.
    Gao, M. Huber, C.-C. Lin, E. Magnier, Y. Ramanjooloo, R. Wainscoat, R.
    Weryk.  1.8-m Ritchey-Chretien + CCD.
F52 Pan-STARRS 2, Haleakala.  Observers J. Herman, T. Lowe, P. Minguez, A.
    Schultz, I. Smith.  Measurers K. Chambers, T. de Boer, J. Fairlamb, H.
    Gao, M. Huber, C.-C. Lin, E. Magnier, Y. Ramanjooloo, R. Wainscoat, R.
    Weryk.  1.8-m Ritchey-Chretien + CCD.
I52 Steward Observatory, Mt. Lemmon Station.  Observer J. B. Fazekas.
    Measurers E. C. Beshore, D. Fay, J. B. Fazekas, D. C. Fuls, A. R. Gibbs,
    A. D. Grauer, H. Groeller, J. K. Hogan, R. A. Kowalski, S. M. Larson, G.
    J. Leonard, D. Rankin, R. L. Seaman, F. C. Shelly, K. W. Wierzchos.  1.0-m
    prime focus + CCD.
L01 Visnjan Observatory, Tican.  Observer K. Korlevic.  1.0-m f/2.9 reflector
    + CCD.
M49 IAS Remote Observatory, Hakos.  Observers D. Husar, M. Junius.  Measurer
    D. Husar.  0.25-m f/4.5 reflector + CMO.
Orbital elements:
2024 CK8                                                 Earth MOID = 0.0154 AU
Epoch 2024 Mar. 31.0 TT = JDT 2460400.5                 MPC                     
M 271.36419              (2000.0)            P               Q                  
n   1.12692991     Peri.  147.61135     +0.45085652     +0.89207814             
a   0.9145444      Node   149.15626     -0.83106181     +0.43196331             
e   0.1495415      Incl.    3.40083     -0.32567571     +0.13268116             
P   0.87           H   25.14          G   0.15           U   7                  
Residuals in seconds of arc
240214 F52  0.1-  0.1+    240215 L01  0.1-  0.1+    240215 F51  0.0   0.0
240214 F52  0.0   0.0     240215 L01  0.4-  0.4+    240215 F51  0.1-  0.0
240214 F52  0.0   0.0     240215 I52  0.1+  0.0     240217 M49  0.1-  0.2+
240215 L01  0.4-  0.0     240215 I52  0.3+  0.2-    240217 M49  0.0   0.2+
240215 L01  0.1+  0.0     240215 I52  0.1+  0.2-    240217 M49  0.5-  0.4+
Ephemeris:
2024 CK8                 a,e,i = 0.91, 0.15, 3                   q = 0.7778
Date    TT    R. A. (2000) Decl.     Delta      r    Elong.  Phase     V
2024 01 18    11 43 13.8 -11 08 27   0.1369  1.0506   115.8    57.5    23.0
...
2024 02 02    12 09 57.4 -11 02 09   0.09218 1.0411   125.1    50.8    21.9
...
2024 02 10    12 27 23.1 -09 18 17   0.06891 1.0325   130.2    46.9    21.2
...
2024 02 16    12 45 03.7 -06 15 17   0.05218 1.0245   133.6    44.2    20.5
2024 02 17    12 48 46.0 -05 30 00   0.04948 1.0230   134.1    43.9    20.4
2024 02 18    12 52 47.6 -04 38 51   0.04681 1.0215   134.5    43.6    20.2
...
2024 02 24    13 28 04.1 +03 38 18   0.03172 1.0118   134.3    44.4    19.4
...
2024 03 03    15 48 57.5 +32 45 28   0.01823 0.9970   107.7    71.3    18.9
...
2024 03 18    22 26 07.1 +34 52 33   0.04172 0.9642    41.0   137.4    24.7
A. U. Tomatic                (C) Copyright 2024 MPC           M.P.E.C. 2024-D29
    
    
More information about the Iaude
mailing list